{"data":{"norad_id":39017,"epoch":"2026-05-25T02:26:52.768032Z","epoch_age_seconds":72969,"freshness":"FRESH","line1":"1 39017U 12067A   26145.10199963 -.00000209  00000+0  00000+0 0  9992","line2":"2 39017   0.0479 106.5859 0002969 311.4191 308.8973  1.00271360 49272","mean_motion":1.0027136,"eccentricity":0.0002969,"inclination_deg":0.0479,"raan_deg":106.5859,"arg_perigee_deg":311.4191,"mean_anomaly_deg":308.8973,"bstar":0,"rev_number":4927,"period_min":1436.1029909238,"perigee_km":35774.195360247,"apogee_km":35799.232848832,"semimajor_km":42164.851104539,"source":"CELESTRAK","updated_at":"2026-05-25T13:38:13.939445Z"}}